This is the latest recevied weather packets stored in our database for station/object SR9SMR. If no packets are shown the sender has not sent any weather packets the latest 1 day(s).
| Time | Temp. | Humidity | Pressure | Rain* | Wind** | Luminosity | Snow |
|---|---|---|---|---|---|---|---|
| 1778071298 | 17.22° C | 100% | 895.6 hPa | - | - | - | - |
| 1778070996 | 16.67° C | 100% | 895.2 hPa | - | - | - | - |
| 1778070392 | 16.67° C | 100% | 895.2 hPa | - | - | - | - |
| 1778069711 | 16.67° C | 100% | 894.7 hPa | - | - | - | - |
| 1778069401 | 16.67° C | 100% | 894.1 hPa | - | - | - | - |
| 1778069156 | 16.67° C | 100% | 894.5 hPa | - | - | - | - |
| 1778068913 | 16.67° C | 100% | 894.7 hPa | - | - | - | - |
| 1778068792 | 16.67° C | 100% | 894.8 hPa | - | - | - | - |
| 1778068671 | 16.67° C | 100% | 894.4 hPa | - | - | - | - |
| 1778068491 | 16.67° C | 100% | 894.6 hPa | - | - | - | - |
| 1778068429 | 16.67° C | 100% | 894.8 hPa | - | - | - | - |
| 1778068308 | 16.67° C | 100% | 894.8 hPa | - | - | - | - |
| 1778068062 | 16.67° C | 100% | 895.6 hPa | - | - | - | - |
| 1778067578 | 16.67° C | 100% | 895.1 hPa | - | - | - | - |
| 1778067458 | 17.22° C | 100% | 894.8 hPa | - | - | - | - |
| 1778067337 | 16.67° C | 100% | 894.7 hPa | - | - | - | - |
| 1778067278 | 16.67° C | 100% | 894.7 hPa | - | - | - | - |
| 1778067217 | 16.67° C | 100% | 895.2 hPa | - | - | - | - |
| 1778066974 | 16.67° C | 100% | 895.5 hPa | - | - | - | - |
| 1778066846 | 16.11° C | 100% | 894.9 hPa | - | - | - | - |
| 1778066602 | 15.56° C | 100% | 895.4 hPa | - | - | - | - |
| 1778066121 | 16.11° C | 100% | 894.7 hPa | - | - | - | - |
| 1778065962 | 16.11° C | 100% | 894.6 hPa | - | - | - | - |
| 1778065659 | 16.11° C | 100% | 895.1 hPa | - | - | - | - |
| 1778065021 | 15.56° C | 100% | 895.1 hPa | - | - | - | - |
* Rain since midnight (hover to see other rain measurements)
** Current wind speed in m/s (hover to see current wind gust speed)